OIMC  Sarakhs Airport

Add Bookmark

Sarakhs, Iran

Status IATA
Operational CKT
Latitude Longitude
36° 30' 4" N 61° 3' 53" E
36.501202 61.064899
Local (DST + 5) UTC (GMT + 4)
Oct 2, 2014 01:48 Oct 1, 2014 22:18
Sunrise-Sunset Local UTC
Begin Civil Twilight 04:54 01:24
Sunrise 05:20 01:50
Sunset 05:09 13:39
End Civil Twilight 05:35 14:05

Current Weather

METAR Observed VFR
OIMC 011700Z 34008KT CAVOK 24/10 Q1017 Wed, Oct 1, 2014 @ 17:00 UTC
(5 Hours, 18 Minutes ago)
Visual Flight Rules
Wind Visibility Clouds Conditions
340° at 8 knots (15 kph) 10 km or more
  • Clear skies
  • No significant weather
Temperatures Readings Precipitation
Current Temp 24°C (75°F)
Dewpoint 10°C (50°F)
Humidity 41%
Altimeter 30.03"Hg
Sea Level Pressure 1017mb
Field Elevation 944.88'
None Recorded

Additional weather within a 185.2km radius of OIMC

Map ICAO Location
OIMM 130.8km W (257°)
UTAM 144.5km N (030°)

24 Hour Weather History

Loading
-

24 Hour Weather Graphs

Loading
-

CheckWX.com is intended as a tool to help pilots better visualize weather data. It is not intended as a substitute for an official weather briefing obtained from a Flight Service Station. CheckWX.com does not meet the FAA requirements for an official pre-flight weather briefing. Therefore, it's important that pilots still call and obtain an official FSS pre-flight weather briefing.